Regional Weather Roundup
Issued by NWS

Home | Current Version | Previous Version | Graphics & Text | Print | Product List | Glossary Off
Versions: 1 2 3 4 5 6 7 8 9 10 11 12 13 14 15 16 17 18 19 20 21 22 23 24 25 26 27 28 29 30 31 32 33 34 35 36 37 38 39 40 41 42 43 44 45 46 47 48 49 50

000
ASUS43 KDTX 230610
RWRMI
MICHIGAN HOURLY REGIONAL WEATHER ROUNDUP
NATIONAL WEATHER SERVICE DETROIT/PONTIAC MI
200 AM EDT WED APR 23 2014

NOTE: "FAIR" INDICATES FEW OR NO CLOUDS BELOW 12,000 FEET WITH NO
SIGNIFICANT WEATHER AND/OR OBSTRUCTION TO VISIBILITY.

MIZ047>049-052>055-059>063-066>070-074>076-081>083-230700-
SOUTHEAST LOWER MICHIGAN

CITY           SKY/WX    TMP DP  RH WIND       PRES   REMARKS
ADRIAN         FAIR      38  27  64 N13       29.98R WCI  30
6HR MIN TEMP:  38; 6HR MAX TEMP:  46;

ALMA           CLOUDY    35  27  73 NW9       30.02R WCI  28
ANN ARBOR      MOCLDY    37  27  67 NW14      29.96S WCI  28
BAD AXE        CLOUDY    37  31  81 N13G22    29.95R WCI  28
6HR MIN TEMP:  37; 6HR MAX TEMP:  39;

CARO           CLOUDY    39  32  77 NW14      29.96R WCI  31
DETROIT CITY   CLOUDY    42  29  59 N10       29.95S
6HR MIN TEMP:  42; 6HR MAX TEMP:  48;

DETROIT        CLOUDY    41  29  62 NW12      29.96R
6HR MIN TEMP:  41; 6HR MAX TEMP:  47;

FLINT          CLOUDY    38  28  67 NW13      29.98R WCI  30
6HR MIN TEMP:  38; 6HR MAX TEMP:  44;

GROSSE ILE     CLOUDY    43  30  61 NW13      29.94R
HILLSDALE      FAIR      37  26  63 N8        29.97S WCI  31
6HR MIN TEMP:  37; 6HR MAX TEMP:  45;

HOWELL         CLOUDY    36  28  74 NW9G16    29.98S WCI  29
6HR MIN TEMP:  36; 6HR MAX TEMP:  43;


CITY           SKY/WX    TMP DP  RH WIND       PRES   REMARKS
JACKSON        FAIR      35  27  72 N7        29.99R WCI  29
6HR MIN TEMP:  35; 6HR MAX TEMP:  44;

LAMBERTVILLE   FAIR      39  28  65 NW8       29.97S WCI  34
LANSING        CLOUDY    36  27  69 N14G23    30.01S WCI  27
6HR MIN TEMP:  35; 6HR MAX TEMP:  45;

LAPEER         CLOUDY    37  31  80 NW9       29.96R WCI  30
MASON          MOCLDY    35  28  75 NW7G17    30.00R WCI  30
MONROE         MOCLDY    39  28  65 NW15G21   29.95R WCI  31
MT. CLEMENS    CLOUDY    39  31  72 NW10G23   29.93S WCI  32
6HR MIN TEMP:  39; 6HR MAX TEMP:  45;

PONTIAC        CLOUDY    37  28  70 NW14      29.95R WCI  28
6HR MIN TEMP:  37; 6HR MAX TEMP:  43; 6HR PCP: TRACE;

PORT HOPE        N/A     37  33  85 NW8       29.93R WCI  31
6HR MIN TEMP:  37; 6HR MAX TEMP:  42;

PORT HURON     LGT RAIN  37  32  81 NW9G18    29.93R WCI  31
TRI CITIES     FAIR      36  28  73 NW10      30.00R WCI  28
6HR MIN TEMP:  36; 6HR MAX TEMP:  42;

TROY           CLOUDY    39  29  66 NW13      29.96R WCI  32
SAGINAW HB     CLOUDY    37  30  75 NW12      29.99R WCI  30
YPSILANTI      MOCLDY    41  28  60 NW13      29.96R
6HR MIN TEMP:  40; 6HR MAX TEMP:  49;

$$
MIZ043>046-050>051-056>058-064>065-071>073-077>080-230700-
SOUTHWEST LOWER MICHIGAN

CITY           SKY/WX    TMP DP  RH WIND       PRES   REMARKS
BATTLE CREEK   FAIR      37  26  64 NW10      30.01R WCI  30
6HR MIN TEMP:  37; 6HR MAX TEMP:  46;

BENTON HARBOR  FAIR      37  29  72 N8        30.06R WCI  31
6HR MIN TEMP:  37; 6HR MAX TEMP:  41;

BIG RAPIDS     FAIR      33  26  77 NW6       30.02S WCI  27
6HR MIN TEMP:  33; 6HR MAX TEMP:  41;

COLDWATER      FAIR      37  27  68 N8G17     29.99S WCI  30
6HR MIN TEMP:  36; 6HR MAX TEMP:  44;

FREMONT        FAIR      32  25  76 N6        30.05S WCI  26
HOLLAND        FAIR      38  26  62 N8G18     30.06R WCI  32
6HR MIN TEMP:  38; 6HR MAX TEMP:  48;

GRAND RAPIDS   FAIR      35  26  69 N8        30.03R WCI  29
6HR MIN TEMP:  35; 6HR MAX TEMP:  45;

IONIA          CLOUDY    35  27  73 N14       30.02R WCI  26
KALAMAZOO      FAIR      37  26  64 N16G26    30.02S WCI  28
6HR MIN TEMP:  37; 6HR MAX TEMP:  46;

LUDINGTON      FAIR      34  29  81 N6        30.08S WCI  29
MARSHALL       FAIR      36  26  67 NW3       29.99S
MOUNT PLEASANT FAIR      35  28  77 NW7       30.00S WCI  29
6HR MIN TEMP:  35; 6HR MAX TEMP:  42;

MUSKEGON       FAIR      35  24  64 N9        30.06F WCI  28
6HR MIN TEMP:  35; 6HR MAX TEMP:  44;

SOUTH HAVEN    FAIR      35  30  81 N6        30.05S WCI  30
$$
MIZ016>042-230700-
NORTHERN LOWER MICHIGAN

CITY           SKY/WX    TMP DP  RH WIND       PRES   REMARKS
ALPENA         FAIR      35  27  72 NW8G17    29.97R WCI  29
6HR MIN TEMP:  35; 6HR MAX TEMP:  38; 6HR PCP: TRACE;

BEAVER ISLAND  FAIR      31  28  88 NW7       30.08R WCI  25
6HR MIN TEMP:  31; 6HR MAX TEMP:  35;

BELLAIRE       MOCLDY    33  29  85 NW3       30.05R
6HR MIN TEMP:  33; 6HR MAX TEMP:  36;

CADILLAC       FAIR      30  27  87 NW8       30.00S WCI  23
CHARLEVOIX     FAIR      32  29  88 NW6       30.09R WCI  26
6HR MIN TEMP:  32; 6HR MAX TEMP:  35;

FRANKFORT      FAIR      33  28  83 N7        30.08S WCI  27
GAYLORD        FAIR      30  27  88 NW5       29.99R WCI  25
6HR MIN TEMP:  30; 6HR MAX TEMP:  33;

GRAYLING       MOCLDY    33  29  86 NW10      30.01R WCI  25
6HR MIN TEMP:  33; 6HR MAX TEMP:  35;

HARBOR SPRINGS FAIR      31  28  88 CALM      30.03R
HOUGHTON LAKE  CLOUDY    33  28  81 NW13      30.00R WCI  24
6HR MIN TEMP:  32; 6HR MAX TEMP:  35;

MANISTEE       MOCLDY    34  27  75 N7        30.08S WCI  28
OSCODA         CLOUDY    38  30  74 NW12      29.95S WCI  30
PELLSTON       FAIR      30  26  85 NW7       30.02S WCI  23
6HR MIN TEMP:  30; 6HR MAX TEMP:  37;

ROGERS CITY    CLOUDY    35  30  83 NW10      30.00S WCI  27
TRAVERSE CITY  CLOUDY    34  27  75 NW8       30.05S WCI  27
6HR MIN TEMP:  34; 6HR MAX TEMP:  38;

$$
MIZ007>008-015-230700-
EASTERN UPPER MICHIGAN

CITY           SKY/WX    TMP DP  RH WIND       PRES   REMARKS
KINROSS        FAIR      32  28  86 NW9       30.00S WCI  24
6HR MIN TEMP:  32; 6HR MAX TEMP:  36;

MACKINAC ISLAN FAIR      31  27  86 NW8       30.01S WCI  23
6HR MIN TEMP:  31; 6HR MAX TEMP:  36;

NEWBERRY       FAIR      29  27  89 W6        30.05R WCI  23
S. S. MARIE    FAIR      33  25  72 NW8       30.01R WCI  26
6HR MIN TEMP:  32; 6HR MAX TEMP:  38;

MUNISING         N/A     32  26  78 N5        30.11R WCI  27
6HR MIN TEMP:  32; 6HR MAX TEMP:  35;

$$
MIZ004>006-011>014-085-230700-
CENTRAL UPPER MICHIGAN

CITY           SKY/WX    TMP DP  RH WIND       PRES   REMARKS
MANISTIQUE     FAIR      29  26  90 NW6       30.08S WCI  23
6HR MIN TEMP:  28; 6HR MAX TEMP:  36;

ESCANABA       FAIR      30  23  74 NW5       30.11R WCI  25
6HR MIN TEMP:  28; 6HR MAX TEMP:  37;

MENOMINEE      FAIR      28  25  86 CALM      30.13R
6HR MIN TEMP:  28; 6HR MAX TEMP:  43;

SAWYER-GWINN   FAIR      28  24  87 NW5       30.10R WCI  23
6HR MIN TEMP:  27; 6HR MAX TEMP:  35;

$$
MIZ001>003-009>011-084-230700-
WESTERN UPPER MICHIGAN

CITY           SKY/WX    TMP DP  RH WIND       PRES   REMARKS
IRON MOUNTAIN  FAIR      25  21  85 CALM      30.12R
6HR MIN TEMP:  25; 6HR MAX TEMP:  39;

HOUGHTON       FAIR      25  21  85 NW6       30.11R WCI  18
6HR MIN TEMP:  24; 6HR MAX TEMP:  37;

COPPER HARBOR    N/A     32  25  75 N6        30.12R WCI  26
6HR MIN TEMP:  30; 6HR MAX TEMP:  35;

IRONWOOD       FAIR      28  23  80 CALM      30.09R
6HR MIN TEMP:  28; 6HR MAX TEMP:  45;

$$

ABBREVIATIONS USED IN REMARKS
   TC - TEMPERATURE IN CELSIUS
  WCI - WIND CHILL INDEX
   HX - HEAT INDEX
  VSB - VISIBILITY




USA.gov is the U.S. government's official web portal to all federal, state and local government web resources and services.